Regional Weather Roundup
Issued by NWS Little Rock, AR

Home | Current Version | Previous Version | Graphics & Text | Print | Product List | Glossary On
Versions: 1 2 3 4 5 6 7 8 9 10 11 12 13 14 15 16 17 18 19 20 21 22 23 24 25 26 27 28 29 30 31 32 33 34 35 36 37 38 39 40 41 42 43 44 45 46 47 48 49
000
ASUS44 KLZK 282305
RWRLZK

WEATHER ROUNDUP FOR ARKANSAS
NATIONAL WEATHER SERVICE LITTLE ROCK AR
500 PM CST SAT FEB 28 2015

NOTE: "FAIR" INDICATES FEW OR NO CLOUDS BELOW 12,000 FEET WITH NO
SIGNIFICANT WEATHER AND/OR OBSTRUCTIONS TO VISIBILITY.

ARZ001-003-010-029-010000-
NORTHWEST ARKANSAS

CITY           SKY/WX    TMP DP  RH WIND       PRES   REMARKS
FAYETTEVILLE   FRZ RAIN  29  28  96 CALM      30.34F FOG
FORT SMITH     FRZ RAIN  29  26  89 E12       30.38F FOG     WCI  19
HARRISON       MIX PCPN  25  23  92 E5        30.36S FOG     WCI  19
BENTONVILLE    CLOUDY    28  25  86 E5        30.35S WCI  23
ROGERS         FRZ RAIN  26  23  88 E6        30.35S FOG     WCI  19
SILOAM SPGS    CLOUDY    28  21  74 SE3       30.35F
HIGHFILL       CLOUDY    28  25  88 E6        30.34S FOG     WCI  22
SPRINGDALE     FOG       28  27  93 E5        30.36F VSB 1   WCI  23
$$

ARZ004-005-016-010000-
NORTH CENTRAL ARKANSAS

CITY           SKY/WX    TMP DP  RH WIND       PRES   REMARKS
BATESVILLE     CLOUDY    30  21  69 NE5       30.42S WCI  25
FLIPPIN        CLOUDY    27  21  80 CALM      30.40S
MTN HOME       FRZ RAIN  26  24  92 NE5       30.39R FOG     WCI  20
$$

ARZ040-041-010000-
WEST CENTRAL ARKANSAS

CITY           SKY/WX    TMP DP  RH WIND       PRES   REMARKS
MENA           CLOUDY    34  32  93 E7        30.31F WCI  28
MOUNT IDA      CLOUDY    34  29  82 CALM      30.33R
$$

ARZ009-017-025-026-028-010000-
NORTHEAST ARKANSAS

CITY           SKY/WX    TMP DP  RH WIND       PRES   REMARKS
CORNING        FAIR      30  23  74 N7        30.46R WCI  23
JONESBORO      PTSUNNY   30  24  78 NE8       30.42S WCI  22
NEWPORT        PTSUNNY   31  24  75 NE10      30.43F WCI  22
WALNUT RIDGE   PTSUNNY   28  19  69 NE9       30.44F WCI  20
BLYTHEVILLE    MOCLDY    35  25  66 NE8       30.40F WCI  29
$$

ARZ022-023-033-042-044-010000-
CENTRAL ARKANSAS

CITY           SKY/WX    TMP DP  RH WIND       PRES   REMARKS
LITTLE ROCK    CLOUDY    38  23  55 E7        30.38F
N LITTLE ROCK  CLOUDY    38  26  60 E8        30.38F
JACKSONVILLE   PTSUNNY   37  22  54 NE8       30.37F
SEARCY         CLOUDY    34  23  64 NE8       30.42R WCI  27
HOT SPRINGS    CLOUDY    39  22  50 E3        30.37R
RUSSELLVILLE   CLOUDY    33  25  72 N3        30.38F
CLINTON        CLOUDY    32  25  74 NE3       30.40F
$$

ARZ036-010000-
EAST ARKANSAS

CITY           SKY/WX    TMP DP  RH WIND       PRES   REMARKS
WEST MEMPHIS   CLOUDY    43  26  51 CALM      30.37F
$$

ARZ050-053-066-070-073-010000-
SOUTHWEST ARKANSAS

CITY           SKY/WX    TMP DP  RH WIND       PRES   REMARKS
ARKADELPHIA    FAIR      40  26  57 NE6       30.37R
CAMDEN         PTSUNNY   45  25  45 MISG      30.35S
TEXARKANA      CLOUDY    38  26  62 E5        30.33F
EL DORADO      CLOUDY    48  30  49 E6        30.33R
DE QUEEN       CLOUDY    35  27  72 N6        30.33F WCI  30
$$

ARZ056-057-069-010000-
SOUTHEAST ARKANSAS

CITY           SKY/WX    TMP DP  RH WIND       PRES   REMARKS
PINE BLUFF     CLOUDY    37  27  67 NE8       30.37S
STUTTGART      MOSUNNY   37  25  60 NE9       30.39R
MONTICELLO     CLOUDY    46  31  55 E13       30.31F

$$




USA.gov is the U.S. government's official web portal to all federal, state and local government web resources and services.